Theta_e
324 323 322 322 323 324 320 319 320 320 326 337 331 324 331 332 326 330 332 332 343 343 336 347 351 349 351 348 344 343 342 345 345 345 347 345 347 348 348 348 346 346 347 347 348 348 347 347 347 348 349 348 347 345 345 344 346 349 350 351 352 351 351
325 320 320 323 319 322 323 319 322 323 322 332 333 325 331 330 326 335 336 333 343 338 334 351 358 351 355 359 357 346 341 343 344 345 345 344 347 347 347 348 345 345 347 347 349 348 346 348 349 349 348 345 341 339 339 339 342 345 347 349 350 350 351
325 322 320 322 320 320 324 322 324 323 320 324 325 324 330 326 325 338 339 335 341 339 340 352 354 356 360 359 361 357 348 342 341 343 344 343 345 346 345 346 344 344 346 347 348 347 347 349 350 349 347 342 338 336 336 337 340 344 346 348 349 349 350
323 327 326 322 323 322 321 322 322 324 327 327 323 323 327 325 327 337 335 332 338 344 353 357 349 359 364 355 359 362 348 341 340 341 343 343 344 343 343 343 343 344 346 347 348 347 348 350 350 349 347 341 338 336 336 337 340 344 345 346 347 348 349
323 328 329 324 325 325 321 322 321 322 325 324 323 323 324 328 334 338 333 330 341 352 355 355 348 355 361 354 356 355 342 339 340 339 340 342 342 342 342 342 342 344 345 346 347 347 349 350 349 350 347 341 339 337 337 339 341 343 344 345 346 346 347
322 329 330 325 324 325 326 326 323 324 324 324 324 322 323 329 333 338 334 328 341 356 352 351 352 352 353 347 345 345 340 337 339 338 339 340 341 341 342 342 343 344 345 345 347 348 348 350 349 349 347 344 340 339 338 339 342 344 344 345 345 346 346
325 329 328 323 320 322 327 326 325 328 327 328 329 323 324 328 328 333 334 327 340 358 352 350 350 343 339 336 336 338 337 338 338 338 338 339 340 342 342 342 343 343 344 345 345 348 348 348 348 347 347 345 341 340 339 339 342 343 344 345 345 346 346
345 339 335 332 326 324 326 326 326 329 326 328 333 330 333 334 329 331 329 325 340 360 355 346 339 334 334 332 334 337 336 338 339 337 340 340 340 342 341 341 343 343 345 346 346 347 347 347 347 346 346 344 341 340 340 339 342 343 343 344 344 346 346
336 332 332 337 332 328 329 330 327 328 331 331 329 333 338 333 329 332 328 325 341 360 359 351 343 342 343 335 333 337 336 338 339 338 340 340 339 341 340 341 343 344 345 346 346 347 346 346 345 345 346 344 342 341 340 340 342 342 341 342 343 344 346
322 322 329 336 335 329 327 330 328 327 332 330 327 332 334 329 326 330 331 332 343 354 356 357 354 353 352 341 334 337 338 337 339 340 339 339 339 339 341 342 344 345 345 346 346 345 345 344 344 344 346 345 343 342 341 340 341 342 341 341 343 344 345
325 329 342 344 336 327 324 327 327 328 330 331 336 333 328 332 331 331 342 343 335 339 348 352 355 355 356 349 337 336 338 338 339 340 339 339 340 340 343 343 344 345 345 345 345 344 344 344 343 343 344 344 344 343 342 341 341 342 340 339 341 343 345
328 335 346 340 331 326 326 327 327 329 331 333 339 332 325 334 330 328 351 355 332 332 342 347 353 358 359 352 338 334 338 339 339 341 340 339 341 342 344 344 344 345 345 345 345 345 344 344 342 342 343 344 344 344 344 343 342 342 341 339 339 341 344
331 333 334 333 331 328 329 331 330 331 333 332 332 331 330 335 331 331 349 354 339 336 339 342 349 350 348 344 337 334 339 339 340 342 340 340 342 342 343 343 344 345 345 345 345 345 345 344 343 343 344 345 344 344 345 344 343 343 342 340 340 339 341
333 332 331 331 330 329 329 332 333 332 334 336 332 331 336 335 335 342 346 345 347 342 335 337 340 336 336 335 334 336 338 339 341 342 342 342 342 342 342 343 345 345 345 344 343 345 345 344 343 345 346 345 343 343 345 345 344 344 343 342 342 341 342
333 335 336 333 331 332 329 330 337 334 329 334 332 331 339 333 331 344 344 344 357 347 332 334 334 332 336 335 335 337 337 339 342 342 343 342 341 342 342 343 345 344 342 342 343 344 344 343 344 346 347 345 343 343 345 345 345 345 345 344 344 344 345
332 334 334 335 335 333 329 330 340 338 329 331 330 330 339 335 332 341 338 337 353 348 335 335 335 334 337 335 334 336 336 339 342 341 342 342 340 341 340 341 343 342 342 342 343 344 344 344 345 345 345 345 342 343 344 345 346 346 346 346 345 346 347
335 338 334 335 334 329 330 337 343 341 334 333 330 330 338 338 337 343 336 333 345 345 340 344 344 342 340 336 335 336 336 338 340 340 341 341 339 338 338 339 341 341 342 342 342 345 345 345 346 345 345 345 343 344 345 346 346 345 345 346 346 347 347
336 345 338 332 327 326 336 345 341 336 333 332 331 331 335 336 337 343 345 344 345 342 340 344 347 348 344 338 334 335 335 337 338 339 340 340 338 337 337 339 340 341 342 341 341 343 344 343 344 344 344 345 345 346 346 345 344 343 344 345 346 347 347
334 342 335 326 328 336 345 341 332 329 329 330 333 332 333 336 338 344 352 354 348 341 336 334 335 337 337 333 334 335 334 334 336 337 339 339 339 336 337 338 340 340 341 340 339 340 341 340 341 342 343 344 345 346 345 344 343 343 343 343 344 346 345
330 331 328 328 336 344 343 335 330 332 334 333 332 330 334 338 339 343 352 353 344 335 330 329 331 332 333 334 334 334 333 335 335 336 338 339 338 337 337 338 340 340 339 337 337 337 339 339 337 339 342 343 344 345 343 343 343 343 343 343 343 344 344
333 332 331 333 333 334 336 336 334 333 335 335 331 329 336 339 336 338 344 344 342 337 332 330 332 332 334 338 336 334 335 335 335 336 338 338 337 337 337 338 339 339 338 338 337 336 338 338 337 338 340 340 342 343 343 343 344 343 343 343 343 343 343
335 332 329 327 326 329 336 337 332 330 333 334 330 328 335 337 334 336 339 339 340 338 334 333 334 333 337 342 340 334 334 335 335 336 337 338 338 337 337 338 339 339 339 339 337 336 337 337 337 338 339 339 340 341 342 343 343 343 343 343 343 343 343
331 327 325 328 329 334 339 336 333 334 334 333 328 326 333 338 335 337 340 337 336 334 332 334 338 338 341 344 339 333 334 336 335 336 337 338 338 338 337 338 339 339 340 339 338 338 337 337 337 337 338 339 339 340 342 343 343 344 343 343 343 344 344
331 328 327 330 330 334 337 335 335 336 335 332 327 327 335 338 337 338 340 338 336 334 332 334 340 343 344 343 337 333 335 336 334 335 337 337 338 338 337 338 339 339 339 339 338 338 337 336 336 336 338 338 338 339 341 342 343 343 343 343 343 343 344
333 329 326 327 329 333 336 335 335 335 332 327 327 333 337 337 337 340 339 336 337 337 336 337 340 342 341 339 337 335 335 336 335 336 336 336 338 339 337 337 339 338 339 338 337 337 337 336 335 336 337 337 337 339 340 341 341 341 341 342 342 342 343
335 332 327 326 329 333 333 334 335 335 333 329 330 335 338 336 338 340 338 336 335 336 337 337 335 336 337 337 338 337 335 335 335 335 336 337 339 339 338 337 338 337 338 338 337 337 337 336 335 335 336 337 337 337 338 339 339 339 340 341 341 341 342
336 338 337 334 334 333 331 335 339 339 339 338 335 336 338 337 338 338 337 337 335 333 333 334 332 332 332 333 336 338 337 336 335 335 337 338 338 339 338 337 338 338 337 338 336 336 336 336 335 335 336 336 337 337 337 338 338 338 340 341 341 340 341
337 341 342 336 332 330 330 335 339 338 337 336 334 334 335 336 337 337 337 337 336 334 333 333 331 331 331 330 333 335 336 337 337 337 338 338 339 339 337 337 338 337 337 338 337 336 336 336 335 335 335 335 335 336 337 337 337 337 339 340 339 339 339
332 335 337 331 325 327 329 331 335 335 333 332 332 332 333 334 336 338 337 336 335 335 334 333 333 332 331 331 331 330 331 334 335 336 338 338 339 339 337 338 338 337 338 339 338 336 336 336 336 335 335 334 334 335 336 337 337 337 338 338 338 337 336
329 328 330 325 321 326 329 328 329 331 329 328 328 330 332 332 333 335 336 336 335 334 334 334 333 332 332 331 331 331 331 331 332 334 336 337 338 338 338 338 338 338 338 338 338 337 337 336 336 335 334 332 333 334 335 336 337 338 338 337 337 336 335
327 328 330 324 320 324 328 326 325 326 324 323 324 327 331 332 332 333 333 335 335 334 333 332 332 332 332 331 331 332 331 331 332 332 334 335 335 337 339 339 339 340 339 338 339 338 336 337 337 336 334 333 333 335 335 335 336 337 337 337 336 336 336
325 326 326 320 318 324 327 324 322 322 321 320 321 325 330 332 332 333 333 334 336 334 333 332 331 331 332 332 331 331 331 331 331 331 333 336 335 335 337 338 339 340 339 338 340 339 338 338 337 336 335 333 333 334 335 334 335 336 337 337 337 336 336
324 325 322 319 320 324 325 323 322 320 319 319 319 324 330 331 330 331 333 334 336 334 333 332 331 330 331 332 331 331 331 331 331 331 333 336 336 335 335 336 338 340 340 340 339 339 339 339 338 337 336 335 334 334 334 334 334 335 337 339 339 338 337
325 325 322 319 321 324 324 322 320 318 318 318 319 324 330 329 328 329 331 334 336 336 333 333 334 333 332 331 331 331 331 331 331 332 333 335 337 337 336 336 336 337 339 340 341 340 339 339 339 338 336 336 335 333 333 335 335 334 337 340 341 340 338
323 321 318 317 319 322 322 319 318 317 317 318 320 324 327 327 326 327 328 331 335 336 336 336 336 335 333 332 331 331 331 330 331 331 331 334 337 338 337 336 336 336 338 339 340 339 339 339 340 339 338 336 336 334 334 335 336 336 338 339 341 341 339
319 317 317 317 318 319 319 317 317 318 318 318 320 322 323 324 324 326 327 328 331 333 334 334 334 334 333 332 332 331 331 331 330 330 331 333 335 338 339 338 337 339 341 342 342 343 342 340 339 340 339 336 335 335 335 334 334 337 337 336 338 340 339
317 317 317 316 317 317 317 317 317 318 319 319 320 321 322 322 323 324 326 328 328 329 330 330 330 331 331 331 331 332 332 332 331 332 332 332 333 337 340 341 341 341 343 344 346 346 346 345 344 343 343 342 339 338 336 334 333 334 333 330 331 334 338
Wind_Speed
6 6 6 6 5 3 1 2 3 4 4 7 5 2 0 3 1 2 1 3 4 3 4 5 4 3 4 5 2 2 5 7 9 11 11 12 14 15 15 14 14 15 15 15 14 13 12 12 12 13 13 14 15 16 17 19 20 21 22 24 27 31 35
6 3 3 1 1 5 5 2 5 3 2 5 4 2 3 4 1 3 2 3 4 3 3 5 6 4 5 5 3 3 5 8 11 13 12 12 14 15 15 15 15 15 16 16 15 14 13 13 12 12 13 14 15 15 17 18 19 20 21 22 24 26 31
6 3 4 3 5 2 4 5 4 2 2 0 1 2 1 1 1 3 4 4 3 3 4 5 4 5 6 6 5 5 6 9 12 14 13 14 15 16 16 16 16 17 17 17 16 14 14 14 13 13 13 14 14 14 15 15 16 16 17 20 22 23 25
4 5 3 1 3 3 3 3 2 2 2 4 2 2 3 2 2 2 3 4 3 5 6 5 6 8 7 7 6 6 8 11 13 15 14 16 17 18 17 16 16 17 18 17 16 15 14 14 14 13 13 13 13 13 14 14 14 14 16 18 21 24 25
4 3 1 4 4 2 1 2 2 1 1 2 2 1 1 3 4 3 1 2 5 7 5 7 9 9 7 9 8 7 10 13 15 16 16 17 18 18 17 16 15 17 18 18 17 15 14 14 14 14 13 13 13 13 14 14 13 13 15 18 20 24 26
2 5 6 5 5 5 5 4 4 3 3 3 3 1 2 2 3 4 4 1 7 7 4 6 8 7 7 10 10 9 12 16 17 17 16 16 17 17 16 16 16 18 19 19 18 16 15 15 14 13 13 13 13 13 14 13 12 12 14 16 18 21 24
5 9 8 2 4 4 4 2 3 4 3 4 5 2 3 2 2 2 4 1 6 6 3 5 6 5 7 10 12 11 14 17 18 17 16 16 16 16 15 15 16 18 18 18 17 16 15 15 14 13 13 13 13 13 13 12 11 11 12 13 14 16 19
5 8 7 3 3 3 3 2 1 4 2 2 5 5 4 3 2 1 3 0 6 6 3 3 5 7 9 10 12 14 15 16 17 16 15 15 16 16 15 15 15 16 16 17 16 15 15 15 15 14 14 13 12 11 12 11 10 10 11 11 11 12 14
5 6 6 5 4 2 2 2 2 2 4 4 3 3 3 3 3 4 4 2 7 6 4 4 4 5 7 7 9 12 14 15 15 15 14 14 15 15 15 15 15 15 15 16 15 15 15 15 15 14 13 12 11 10 11 11 10 9 9 9 10 10 10
1 1 2 3 3 1 1 1 3 1 5 5 4 3 4 1 3 5 4 4 7 7 6 6 5 4 6 6 5 8 13 14 14 13 13 14 14 14 14 13 13 14 15 15 15 15 15 15 14 13 12 12 10 11 12 11 10 9 7 6 8 8 8
5 6 6 5 1 1 0 1 1 3 1 5 5 5 3 3 3 2 5 6 4 10 9 6 5 4 6 6 4 7 12 12 11 11 12 13 13 12 11 11 12 13 14 15 14 14 14 14 13 12 11 11 11 11 12 11 9 8 6 4 4 5 6
6 8 8 5 2 1 3 2 2 3 1 4 7 4 3 5 5 2 7 5 3 8 9 7 7 6 6 7 8 10 11 11 10 11 12 13 13 12 11 11 12 13 13 13 13 13 14 13 12 12 11 11 11 11 11 10 9 8 6 4 2 4 5
3 4 5 4 1 1 3 3 4 3 3 5 5 3 5 7 6 5 6 6 6 8 9 7 9 10 10 10 12 11 9 9 10 11 12 13 13 12 12 13 13 13 12 12 11 12 12 12 12 11 11 11 11 11 10 9 8 8 8 6 4 3 4
3 3 4 2 1 0 2 4 4 3 4 7 6 4 6 7 5 6 4 5 7 9 8 8 9 11 13 10 9 10 10 10 11 12 13 14 13 12 12 13 13 12 10 10 10 11 12 12 11 11 10 11 11 11 10 8 7 9 9 8 7 5 2
4 4 5 5 3 0 3 5 5 4 3 3 3 3 5 5 4 3 1 1 7 7 4 6 6 8 11 9 8 12 13 13 13 13 14 14 12 12 11 12 12 11 10 10 11 11 11 11 10 10 10 10 10 10 8 6 7 9 9 8 7 5 3
5 4 5 6 5 2 1 6 6 3 2 2 2 2 4 4 3 2 2 3 6 5 4 5 3 7 10 10 12 14 15 14 15 15 16 14 12 11 11 11 12 11 10 10 10 10 10 10 10 9 9 9 10 9 8 6 7 9 9 8 7 5 4
6 5 4 4 5 5 3 5 5 5 3 2 2 3 4 4 4 5 3 5 6 5 4 4 4 4 7 10 15 17 17 17 17 18 17 14 12 11 11 11 11 11 10 9 9 9 9 9 9 9 9 8 8 8 8 7 8 9 9 9 8 7 7
5 7 4 4 4 1 4 5 5 4 3 3 4 3 6 6 2 2 5 5 5 6 5 5 8 8 10 14 18 20 19 18 18 19 18 15 13 13 13 12 11 10 9 9 9 9 9 9 9 9 9 9 9 9 9 9 8 8 9 9 9 8 8
3 4 4 4 2 6 7 4 2 4 4 5 5 2 5 6 5 6 6 6 6 8 10 13 14 13 11 13 15 17 18 18 18 18 18 16 14 15 14 13 11 10 9 10 10 10 10 9 9 10 10 10 11 11 10 9 9 9 8 8 9 9 9
2 0 2 2 5 7 6 5 4 1 1 3 3 1 5 6 6 5 7 8 6 8 12 14 14 14 10 10 13 15 15 16 17 17 17 15 15 16 15 13 12 10 9 9 9 10 10 9 9 9 10 11 11 10 10 9 9 9 9 8 9 10 10
3 3 2 2 4 7 6 3 3 2 3 3 0 2 5 5 2 4 8 10 8 8 9 7 6 6 4 6 11 12 12 15 16 16 15 13 14 15 14 12 11 10 9 9 9 10 10 9 9 9 10 10 11 10 10 9 9 10 9 8 8 9 10
2 3 2 1 2 5 5 3 4 6 7 7 4 3 3 4 9 12 10 10 10 10 6 1 2 2 1 4 5 5 6 11 14 15 14 13 14 14 13 12 12 12 11 11 10 11 11 10 9 10 10 11 10 11 10 9 9 10 9 9 8 9 9
1 4 4 3 4 5 4 6 10 14 15 8 3 2 3 6 14 19 14 10 12 14 9 1 6 6 3 6 4 9 8 8 12 15 15 14 15 14 12 12 12 13 13 12 12 12 11 11 11 10 11 11 11 10 10 10 10 9 9 9 9 9 9
2 3 4 3 3 2 4 8 13 19 17 6 2 2 4 8 17 21 16 13 15 15 12 5 3 3 2 5 7 10 10 9 9 14 15 14 15 15 12 11 13 14 15 13 12 11 11 11 11 10 11 11 11 10 10 10 10 9 9 9 9 9 9
2 3 3 2 2 1 6 13 17 18 12 2 4 4 6 11 19 18 15 15 16 17 15 11 8 8 10 12 13 10 10 10 8 11 14 15 16 15 13 12 14 16 16 14 11 10 10 11 11 10 11 11 11 11 11 11 10 10 10 9 9 8 8
1 2 3 1 1 1 11 19 18 13 6 2 3 6 8 12 16 15 14 15 15 17 16 14 13 15 18 19 17 13 10 10 7 8 13 16 16 16 15 15 16 17 17 15 13 11 11 12 11 10 10 11 11 12 12 11 11 11 10 9 8 8 7
1 1 2 1 2 5 18 20 12 9 5 2 6 11 13 12 14 16 18 17 17 17 15 14 15 17 19 21 20 18 15 10 4 4 10 14 16 16 16 17 18 18 17 16 14 13 13 12 11 11 10 10 11 11 11 11 12 11 9 8 7 6 6
2 2 2 1 4 8 17 13 3 3 3 4 7 12 14 16 17 18 20 20 20 20 19 18 19 19 19 20 19 19 20 18 11 3 5 11 14 16 17 18 19 18 17 17 15 15 15 13 12 12 11 11 11 10 11 12 12 10 9 8 7 6 6
1 3 3 0 3 10 14 10 5 5 8 12 16 15 16 18 17 17 19 20 20 21 22 23 23 22 21 21 18 17 18 20 19 12 4 6 11 14 16 18 20 21 19 18 17 16 16 14 12 12 13 12 11 10 11 11 11 10 9 9 7 7 7
3 5 5 2 9 14 13 11 11 11 13 19 21 18 19 21 19 17 17 18 20 22 22 23 25 26 25 24 20 16 13 15 19 19 14 8 7 12 15 18 21 23 22 20 19 18 17 15 14 13 13 13 12 10 11 10 9 9 9 8 8 7 7
3 3 3 5 13 16 12 12 16 17 19 25 25 21 22 23 22 21 18 16 20 23 22 21 24 26 26 26 24 21 16 14 16 20 21 17 11 10 13 17 21 24 25 23 22 20 19 17 15 14 14 14 13 12 11 11 9 9 9 8 7 7 7
2 5 6 12 20 16 7 10 18 21 24 29 28 23 22 21 21 21 18 15 18 21 21 21 22 25 26 25 26 26 23 20 20 22 23 21 18 15 13 13 18 24 26 26 24 22 20 18 16 15 15 15 15 14 13 12 10 10 9 8 7 6 6
5 5 6 15 20 13 7 14 23 24 26 30 28 23 19 17 18 19 18 14 14 17 20 20 21 23 25 24 24 26 25 24 24 25 25 24 21 19 17 16 15 19 25 28 27 25 22 19 18 16 16 16 16 15 14 13 12 11 10 9 8 6 6
4 4 6 11 10 7 12 22 27 27 28 29 26 21 16 15 19 21 19 16 13 11 13 16 18 20 22 23 24 25 24 24 25 25 26 26 24 22 20 19 18 18 21 26 29 27 23 20 19 18 17 17 18 17 15 14 13 12 10 10 9 8 7
6 10 16 16 10 10 18 26 28 28 29 26 21 19 17 18 20 22 21 20 17 13 12 15 16 17 19 20 22 23 23 24 24 25 26 26 25 24 23 22 22 20 19 23 28 30 27 23 20 18 18 18 19 18 16 14 13 12 11 11 11 10 9
11 17 22 21 17 18 23 27 28 28 26 22 19 18 19 20 21 20 18 19 19 17 17 18 17 17 18 19 20 21 23 23 24 27 28 27 25 24 23 23 24 21 18 21 26 29 28 25 22 20 19 19 19 18 15 13 13 13 12 12 12 12 11
17 22 25 25 24 25 27 29 29 26 23 22 22 21 19 19 20 20 18 17 16 16 17 18 17 16 17 17 17 18 20 21 24 27 28 27 26 26 24 23 21 18 15 18 21 24 24 22 19 17 17 18 17 16 14 13 13 14 14 13 13 13 12
Wind_Direction
194 219 217 170 158 173 147 120 168 218 177 121 117 192 117 82 134 254 255 272 294 319 309 324 359 339 327 342 329 214 225 230 232 230 221 214 210 206 206 206 203 203 204 207 210 211 211 215 224 233 241 245 247 249 251 253 254 253 251 250 250 251 249
263 252 189 140 102 136 123 177 213 205 103 91 105 127 13 40 194 276 305 272 298 343 311 321 353 331 297 304 296 264 233 216 225 230 219 212 210 207 209 209 205 206 208 211 213 214 214 216 223 232 238 241 244 248 251 251 252 250 248 247 248 251 250
293 350 90 43 351 54 122 166 175 115 124 164 60 122 120 104 211 285 316 305 281 205 228 285 298 256 246 254 264 266 242 218 224 232 222 212 210 209 211 211 208 208 211 216 218 217 218 219 224 230 234 238 244 251 255 255 255 253 250 247 245 248 251
315 3 60 153 300 349 53 123 107 36 139 163 162 141 155 161 169 246 308 330 286 227 217 219 233 235 220 220 237 245 239 227 225 231 226 215 213 213 214 213 214 214 214 219 221 221 222 223 226 231 235 240 246 254 257 258 261 259 256 252 248 248 249
359 351 282 188 186 168 128 183 229 314 78 135 154 104 99 126 141 179 224 310 272 252 207 190 223 235 212 206 216 226 233 228 225 231 230 223 218 217 217 218 220 219 218 221 223 224 225 226 230 235 238 241 247 255 259 259 261 262 261 261 258 254 250
340 261 249 196 186 185 163 171 192 182 143 124 126 313 304 111 124 164 160 212 269 259 203 202 227 225 207 210 211 220 231 227 225 230 233 231 226 222 222 222 223 223 222 223 224 226 229 233 237 241 244 245 248 255 257 256 259 263 266 268 265 257 250
244 261 272 199 184 190 145 128 148 147 133 120 128 197 239 133 91 133 129 155 273 262 214 224 245 246 235 223 214 222 234 231 228 231 236 235 230 226 226 225 227 227 225 225 225 228 233 239 243 246 248 248 250 253 254 255 259 262 265 270 271 260 246
298 293 307 18 85 106 92 35 91 126 128 124 143 174 177 134 147 143 94 296 273 277 273 259 264 268 262 239 221 224 232 236 234 231 234 236 230 228 228 228 229 228 224 224 225 228 234 240 245 247 247 248 253 255 254 255 257 260 265 272 275 267 251
344 342 341 353 356 51 100 315 306 125 113 102 121 136 90 75 184 157 118 239 256 274 311 322 317 297 274 249 223 221 229 237 236 228 229 232 229 229 230 229 227 223 221 223 224 229 235 240 244 246 245 247 256 257 251 251 252 256 269 279 279 279 270
201 204 254 261 264 251 122 314 310 6 106 125 154 121 81 70 198 154 150 219 263 293 309 316 330 330 288 264 225 215 225 234 237 231 225 225 226 228 229 225 220 218 219 222 225 230 235 240 243 243 244 247 254 254 245 244 247 251 265 283 283 290 292
189 196 225 249 265 31 205 123 300 302 81 115 114 97 105 173 162 182 216 204 269 301 294 283 287 280 265 263 242 219 223 228 234 230 224 224 226 225 224 220 216 216 218 221 226 232 236 239 239 238 241 244 247 248 243 238 240 246 255 277 292 306 310
206 199 225 265 8 355 248 187 180 252 259 91 92 113 176 149 119 272 259 192 193 277 273 255 249 240 240 251 241 230 225 223 224 222 218 220 220 217 216 217 217 217 219 223 228 233 236 236 234 234 236 237 238 240 240 233 230 235 242 247 272 322 337
263 206 240 253 163 189 245 220 207 210 172 140 128 166 179 145 143 228 236 181 198 259 268 248 229 213 211 223 226 226 225 219 214 210 209 212 213 212 214 216 219 221 222 226 228 231 234 232 231 233 233 231 230 233 236 232 222 223 232 238 242 272 345
328 342 321 299 126 284 281 268 260 252 199 177 163 174 178 168 199 226 196 188 239 260 255 250 241 217 209 215 220 222 221 214 207 202 204 208 208 213 220 220 221 223 223 227 230 229 230 229 230 234 231 225 224 228 235 235 223 219 225 232 242 253 289
319 335 6 27 36 182 240 284 311 319 283 197 159 161 168 178 239 255 101 261 272 274 270 282 272 209 194 203 213 218 220 214 206 203 204 206 208 218 227 223 219 221 222 225 229 228 227 228 228 230 227 220 219 222 226 227 223 223 223 226 236 247 248
293 316 22 13 12 69 250 294 299 280 247 214 216 206 180 184 193 164 36 304 264 277 330 333 285 184 181 199 212 217 221 215 210 212 210 207 211 220 222 215 211 215 220 224 229 228 226 227 226 223 217 213 213 214 212 213 219 223 223 222 222 223 224
280 296 11 12 24 43 331 276 228 198 199 208 250 294 268 222 149 139 197 243 240 261 316 319 272 215 194 211 217 220 222 215 214 220 218 210 209 209 206 205 205 210 217 224 227 224 223 224 221 216 210 207 206 202 200 206 216 222 222 218 212 207 207
266 291 331 12 27 20 256 244 188 187 225 193 187 257 261 244 207 184 230 248 259 269 267 242 234 221 209 218 224 226 228 222 218 222 220 212 205 200 199 201 204 208 213 216 217 217 218 218 213 208 201 194 192 193 198 205 211 218 219 215 212 207 202
234 308 7 11 286 231 238 281 276 235 231 172 163 230 260 248 267 283 280 276 265 264 262 249 240 238 232 230 230 231 233 231 227 226 221 212 204 201 200 201 203 205 208 210 211 213 215 215 212 208 200 194 194 197 201 206 208 210 211 211 211 208 203
202 62 83 172 245 257 277 330 353 318 342 72 102 272 267 248 245 261 279 282 276 279 278 267 257 261 265 255 243 236 232 233 234 234 228 215 206 203 201 202 203 203 204 206 206 210 215 216 215 210 205 201 202 201 200 203 206 205 205 206 208 208 205
163 148 196 225 289 300 304 347 27 17 337 332 345 244 262 264 287 317 302 302 309 303 299 295 267 259 278 281 264 252 241 235 234 238 237 223 209 206 204 205 207 205 202 201 203 209 214 214 212 211 209 204 201 199 198 200 203 205 204 203 204 206 206
114 124 209 282 284 263 264 294 319 316 302 281 238 214 265 316 3 360 335 319 321 313 304 353 121 120 120 272 287 319 286 250 237 238 239 227 216 214 210 207 207 206 204 201 203 210 212 210 209 210 210 207 200 198 198 198 202 206 205 202 202 202 201
100 139 191 212 199 223 274 311 314 317 315 295 221 190 272 321 356 1 356 346 337 326 313 177 122 110 166 236 308 12 350 283 247 239 236 227 221 219 216 213 211 210 210 206 206 211 213 211 210 210 210 208 202 198 197 197 202 206 204 202 203 202 200
200 159 191 224 211 235 328 325 319 324 326 326 141 193 265 316 344 352 358 3 2 353 346 359 84 109 212 271 328 349 339 317 274 242 232 227 223 220 219 218 214 214 215 211 207 209 210 213 214 211 210 208 201 196 196 197 199 200 200 200 201 203 204
220 192 204 268 251 242 336 328 326 331 337 24 151 209 259 312 331 342 357 10 25 34 31 26 21 1 346 347 349 338 318 319 300 248 231 227 225 226 228 223 214 214 216 213 209 206 207 215 220 214 210 208 200 194 194 194 193 195 198 199 196 196 199
329 199 195 279 244 346 344 336 338 354 19 149 226 280 295 312 325 343 2 12 27 43 45 38 25 18 15 15 15 4 333 317 302 252 233 227 227 231 232 222 214 214 215 213 209 204 203 213 221 219 215 208 200 196 192 189 191 197 199 199 194 192 192
351 46 56 68 206 327 347 346 353 21 38 210 274 307 319 329 343 355 3 9 14 19 23 20 11 12 22 30 31 27 15 2 339 244 232 230 232 234 231 220 214 215 217 215 208 202 203 211 217 220 218 212 204 197 188 187 195 201 200 199 201 200 196
33 45 36 118 221 310 342 350 4 35 12 341 336 330 327 338 349 351 356 5 10 7 5 5 359 356 7 21 31 34 31 26 23 358 237 235 236 235 232 225 219 219 222 220 214 207 205 209 214 217 216 217 214 199 187 191 200 201 200 203 210 214 214
261 218 226 222 341 338 351 3 4 356 352 351 352 340 324 331 345 348 346 354 2 1 357 358 359 355 355 3 14 26 30 27 24 18 347 259 246 242 239 232 226 227 229 225 220 216 210 209 214 216 214 217 218 205 196 201 204 201 204 210 215 221 225
281 258 247 353 3 352 357 10 8 4 358 352 353 345 326 323 330 336 336 337 340 340 338 341 347 350 348 350 355 5 19 21 16 11 3 339 283 259 252 242 232 230 231 229 225 221 218 213 213 214 215 217 217 210 208 212 209 206 209 212 216 223 226
339 302 274 347 347 337 342 1 2 2 357 351 352 350 336 325 321 323 328 330 328 327 326 326 330 336 341 341 341 345 355 359 355 354 353 349 336 302 275 257 240 231 230 231 228 224 223 220 214 214 216 217 214 211 214 218 217 213 214 214 216 222 223
301 266 281 334 338 329 324 352 352 352 351 347 347 347 341 334 324 318 320 328 328 326 325 321 318 322 329 333 334 337 342 344 341 339 341 343 343 335 316 287 258 240 235 235 233 229 226 223 219 215 215 216 216 213 213 217 219 219 219 219 221 225 222
299 273 311 345 345 334 318 333 338 339 339 339 341 341 340 343 339 325 314 310 317 325 327 323 318 318 323 328 332 334 338 340 339 336 335 336 337 335 330 318 291 261 246 241 238 234 231 226 222 219 215 215 217 217 215 218 220 220 223 226 232 240 234
291 265 312 335 336 305 300 315 324 327 328 332 337 339 338 344 346 339 328 313 305 313 327 330 326 323 322 325 327 329 334 340 343 342 338 335 333 332 328 321 310 289 264 249 240 236 234 229 224 221 217 215 216 218 218 221 223 221 222 228 236 242 239
256 276 296 305 295 274 291 306 315 318 321 326 333 336 334 332 332 334 336 332 323 314 315 322 325 324 325 326 323 322 328 335 341 346 346 339 334 330 323 314 307 299 283 262 246 238 234 231 225 221 219 216 216 216 218 223 227 226 226 231 237 240 238
270 285 294 298 292 285 294 304 309 311 314 320 325 327 329 329 327 326 326 328 327 324 319 318 319 320 325 326 324 324 327 332 338 343 344 340 335 330 323 312 303 298 290 274 256 242 236 233 227 222 220 218 216 216 219 223 228 231 233 236 238 238 236
278 285 292 295 292 290 295 301 302 304 310 317 320 320 322 326 327 325 319 314 314 317 321 321 321 320 318 318 321 325 328 334 340 341 338 337 336 333 329 320 309 297 284 271 258 245 238 233 226 222 228 230 226 223 223 225 229 233 236 238 239 237 231